Regional Weather Roundup
Issued by NWS Charleston, SC

Current Version | Previous Version | Graphics & Text | Print | Product List | Glossary On
Versions: 1 2 3 4 5 6 7 8 9 10 11 12 13 14 15 16 17 18 19 20 21 22 23 24 25 26 27 28 29 30 31 32 33 34 35 36 37 38 39 40 41 42 43 44 45 46 47 48 49 50
607 ASUS42 KCHS 161412 RWRCHS REGIONAL WEATHER ROUNDUP NATIONAL WEATHER SERVICE CHARLESTON SC 1000 AM EDT WED AUG 16 2017 NOTE: "FAIR" INDICATES FEW OR NO CLOUDS BELOW 12,000 FEET WITH NO SIGNIFICANT WEATHER AND/OR OBSTRUCTIONS TO VISIBILITY. NOT ALL STATIONS ARE QUALITY CONTROLLED. USE DATA WITH CAUTION... ESPECIALLY DEWPOINT OBSERVATIONS. SCZ027-030-031-034>040-042>050-161500- ...SOUTHEAST SOUTH CAROLINA... CITY SKY/WX TMP DP RH WIND PRES REMARKS N CHARLESTON MOSUNNY 87 76 69 NW6 30.02S HX 97 WATERFRONT PRK N/A N/A N/A N/A W5 30.01R JOHNS ISLAND FAIR 90 77 66 W6 30.02S HX 102 PINOPOLIS N/A 82 79 89 NW5 29.96R HX 93 MONCKS CORNER FAIR 82 75 78 NW3 30.03R SUMMERVILLE FAIR 84 75 74 CALM 30.04R HX 92 BEAUFORT MCAS SUNNY 88 78 72 NW6 30.04R HX 101 BEAUFORT ARPT FAIR 86 75 70 W5 30.03S HX 95 HILTON HEAD IS SUNNY 86 77 74 SW5 30.04S HX 97 WALTERBORO SUNNY 86 73 66 W7 30.04S HX 93 ALLENDALE NOT AVBL ...SOUTHERN MIDLANDS AND PEE DEE... CITY SKY/WX TMP DP RH WIND PRES REMARKS GEORGETOWN FAIR 84 79 84 W5 30.03R HX 96 KINGSTREE FAIR 84 77 79 CALM 30.02S HX 94 ORANGEBURG SUNNY 85 74 69 NW3 30.03S HX 92 BARNWELL FAIR 88 77 70 W6 30.04S HX 100 AIKEN FAIR 82 73 74 NW3 30.08S MANNING FAIR 84 77 79 N13 30.02S HX 94 COLUMBIA MOSUNNY 87 75 67 CALM 30.02S HX 96 SUMTER SUNNY 85 74 67 N3 30.00S HX 93 FLORENCE SUNNY 86 76 71 N3 30.02S HX 96 MYRTLE BEACH SUNNY 86 75 70 VRB5 30.02R HX 95 N MYRTLE BEACH SUNNY 86 76 71 N8 30.00R HX 96 $$ GAZ063-065-086>088-099>101-113>116-118-119-134>141-150-161500- ...SOUTHEAST GEORGIA... CITY SKY/WX TMP DP RH WIND PRES REMARKS SAVANNAH ARPT MOSUNNY 86 76 71 W5 30.05S HX 96 HUNTER AAF SUNNY 86 77 73 W6 30.02S HX 97 FORT STEWART SUNNY 85 74 70 CALM 30.03S HX 92 STATESBORO SUNNY 85 73 65 CALM 30.05S HX 92 SYLVANIA SUNNY 85 78 80 NW6 30.06S HX 97 CLAXTON FAIR 85 77 77 W3 30.06S HX 95 ...CSRA...CENTRAL AND FAR SOUTHEAST GEORGIA... CITY SKY/WX TMP DP RH WIND PRES REMARKS THOMSON SUNNY 84 74 70 N6 30.11S HX 91 AUGUSTA-BUSH SUNNY 88 76 67 VRB5 30.03S HX 99 AUGUSTA-DANIEL SUNNY 86 71 60 NW8 30.05S HX 91 SWAINSBORO FAIR 82 77 83 W5 30.07S HX 91 VIDALIA SUNNY 84 75 74 W5 30.07S HX 92 EASTMAN FAIR 84 65 51 NW6 30.11S HAZLEHURST FAIR 85 65 50 NW5 30.07S ALMA SUNNY 85 74 69 NW6 30.08R HX 92 WAYCROSS SUNNY 85 73 66 NW5 30.09R HX 91 JESUP FAIR 86 73 66 NW5 30.07S HX 93 BAXLEY FAIR 81 73 78 W7 30.08R BRUNSWICK SUNNY 84 73 70 SW6 30.07S HX 91 SAINT SIMONS SUNNY 86 76 71 W7 30.06R HX 96 $$ SCZ027-028-034-036>038-045-046-048>050-GAZ119-141-161500- ...LAKE AND SUPPLEMENTAL COASTAL OBSERVATIONS... STATION/POSITION TIME TEMP WIND PRES WAVE SWELL AIR SEA DIR/SP/G HT/PER HT/PER/DIR (UTC) (F) (DEG/KT/KT) (MB) (FT/S) (FT/S/D) WINYAH BAY 1245 82 310/ 6 1016.0 LAKE MURRAY 1320 83 340/ 1/ 3 1015.9 ACE BASIN NERRS 1245 83 280/ 2 1017.0 FORT PULASKI 1336 83 85 310/ 8/ 9 1017.6S SAPELO ISLAND 1300 82 290/ 5 1018.0 $$ ANZ835-935-AMZ111-154-330-350-352-354-370-450-454-472-161500- ...C-MAN AND BUOY OBSERVATIONS... STATION/POSITION TIME TEMP WIND PRES WAVE SWELL AIR SEA DIR/SP/G HT/PER HT/PER/DIR (UTC) (F) (DEG/KT/KT) (MB) (FT/S) (FT/S/D) BUOY 41004 1350 83 83 280/ 8/ 10 1016.3R 3/ 5 2/220/ 5 BUOY 41008 1250 81 84 270/ 10/ 12 1017.2 2/ 3 2/100/ 8 FOLLY BEACH CMAN 1300 83 300/ 6/ 7 1017.0R CAPERS NEARSHORE 1308 82 85 300/ 10/ 12 1016.2R FRIPP NEARSHORE 1308 83 290/ 8/ 10 1016.7R STATION/POSITION TIME TEMP WIND PRES WAVE SWELL AIR SEA DIR/SP/G HT/PER HT/PER/DIR (UTC) (F) (DEG/KT/KT) (MB) (FT/S) (FT/S/D) 5E ST. MARYS GA 1330 83 N/A 1/ 8 FRYING PAN BUOY 1350 82 83 310/ 10/ 10 1015.6R 2/ 5 2/220/ 5 BUOY 41025 1350 80 83 20/ 10/ 10 1014.9R 3/ 8 3/110/ 8 CAPE LOOKOUT NC 1300 79 360/ 10/ 12 1014.7R BUOY 41002 1250 84 83 240/ 14/ 16 1016.4 5/ 6 2/ 80/ 8 BUOY 41010 1350 85 86 270/ 8/ 10 1018.6R 3/ 5 2/300/ 5 ST AUGUSTINE FL 1400 85 80 320/ 8/ 9 1019.5R $$

USA.gov is the U.S. government's official web portal to all federal, state and local government web resources and services.